Epoch = 2020 Nov. 7.0 TT T = 2020 Nov. 23.61273 TT Peri. = 176.65407 e = 0.4789979 Node = 242.57109 2000.0 q = 1.8747918 AU Incl. = 15.45944 a = 3.5984340 AU n = 0.14438888 P = 6.83 years
m1 = 10.0 + 5 log d + 30.0 log r